{"data":{"norad_id":63229,"intl_designator":"2025-052V","name":"SPACEEYE-T1","alt_names":[],"object_type":"PAYLOAD","status":"ACTIVE","operator":null,"country":"SKOR","launch_date":"2025-03-15","launch_site_code":"AFWTR","launch_vehicle":null,"mission":null,"orbit_class":"UNKNOWN","rcs_meters":null,"size_class":null,"mass_kg":null,"dimensions":null,"purposes":[],"wikipedia_slug":null,"has_3d_model":false,"image_url":null,"decayed_at":null,"tle_current":{"epoch":"2026-09-22T16:58:22.959552Z","epoch_age_seconds":118110,"freshness":"FRESH","line1":"1 63229U 25052V   26265.70721018  .00003147  00000+0  13597-3 0  9995","line2":"2 63229  97.3800 156.6566 0005326 148.9298 211.2255 15.23207307 84687","mean_motion":15.23207307,"eccentricity":0.0005326,"inclination_deg":97.38,"raan_deg":156.6566,"arg_perigee_deg":148.9298,"mean_anomaly_deg":211.2255,"bstar":0.00013597,"rev_number":8468,"period_min":94.537361617318,"perigee_km":492.5125669032,"apogee_km":499.83508279383,"semimajor_km":6874.3108248485,"source":"CELESTRAK","updated_at":"2026-09-23T09:00:21.902821Z"}}}